Orbital Elements at Epoch 2459200.5 (2020-Dec-17.0) TDB
Reference: JPL 32 (heliocentric ecliptic J2000)
Element | Value | Uncertainty (1-sigma) | Units |
e | .2956076466142227 | 3.1244e-08 | |
a | 2.328865898159973 | 7.4452e-09 | au |
q | 1.640435330724785 | 7.2552e-08 | au |
i | 8.162387817344088 | 3.7764e-06 | deg |
node | 97.46678979954879 | 2.9233e-05 | deg |
peri | 187.8582052007525 | 3.0249e-05 | deg |
M | 308.1894806561004 | 1.085e-05 | deg |
tp | 2459387.323108537478 (2021-Jun-21.82310854) | 3.9669e-05 | TDB |
period | 1298.120920716294 3.55 | 6.225e-06 1.704e-08 | d yr |
n | .2773239335834404 | 1.3299e-09 | deg/d |
Q | 3.017296465595161 | 9.646e-09 | au |
|
| | Orbit Determination Parameters
Additional Information
|